Regional Weather Roundup
Issued by NWS Boston, MA

Current Version | Previous Version | Text Only | Print | Product List | Glossary Off
Versions: 1 2 3 4 5 6 7 8 9 10 11 12 13 14 15 16 17 18 19 20 21 22 23 24 25 26 27
000 ASUS41 KBOX 161410 RWRBOX REGIONAL WEATHER ROUNDUP NATIONAL WEATHER SERVICE TAUNTON MA 900 AM EST TUE JAN 16 2018 NOTE: "FAIR" INDICATES FEW OR NO CLOUDS BELOW 12,000 FEET WITH NO SIGNIFICANT WEATHER AND/OR OBSTRUCTIONS TO VISIBILITY. MAZALL-161500- EASTERN MASSACHUSETTS CITY SKY/WX TMP DP RH WIND PRES REMARKS BOSTON FAIR 25 20 81 CALM 30.53R BEVERLY FAIR 23 16 74 CALM 30.52R LAWRENCE FAIR 23 15 71 CALM 30.55R BEDFORD PTSUNNY 22 13 68 NW3 30.53R BLUE HILL N/A 24 17 74 CALM 30.47R NORWOOD FAIR 26 17 68 CALM 30.53R MARSHFIELD FAIR 27 23 86 CALM 30.52F PLYMOUTH FAIR 28 22 78 CALM 30.52R TAUNTON FAIR 27 19 72 CALM 30.52R NEW BEDFORD FAIR 27 21 78 CALM 30.51F $$ MAZALL-161500- CAPE COD AND THE ISLANDS CITY SKY/WX TMP DP RH WIND PRES REMARKS FALMOUTH FAIR 27 25 93 CALM 30.52 HYANNIS FAIR 30 27 88 N6 30.51S WCI 24 CHATHAM CLOUDY 32 28 85 CALM 30.53R PROVINCETOWN FAIR 34 27 75 CALM 30.53F NANTUCKET FAIR 32 28 85 N12 30.53R WCI 23 MARTHAS VNYRD FAIR 27 27 100 NE6 30.52S WCI 20 $$ MAZALL-161500- CENTRAL AND WESTERN MASSACHUSETTS CITY SKY/WX TMP DP RH WIND PRES REMARKS WORCESTER CLOUDY 19 11 70 S3 30.46R FITCHBURG CLOUDY 23 11 60 CALM 30.52R ORANGE CLOUDY N/A N/A N/A CALM 30.51R SPRINGFIELD PTSUNNY 21 11 63 CALM 30.51R WESTFIELD CLOUDY 21 11 65 CALM 30.51R NORTH ADAMS LGT SNOW 22 18 85 E7 30.45R FOG WCI 13 PITTSFIELD LGT SNOW 20 15 81 CALM 30.41R $$ RIZALL-161500- RHODE ISLAND CITY SKY/WX TMP DP RH WIND PRES REMARKS PROVIDENCE PTSUNNY 26 17 68 N3 30.54R NEWPORT FAIR 27 20 75 E5 30.51R WCI 22 BLOCK ISLAND FAIR 32 27 81 E7 30.53R WCI 26 SMITHFIELD PTSUNNY N/A N/A N/A CALM 30.51R WESTERLY FAIR 27 17 66 CALM 30.54R $$ CTZALL-161500- CONNECTICUT CITY SKY/WX TMP DP RH WIND PRES REMARKS BRADLEY INTL CLOUDY 23 11 60 SE3 30.53S HARTFORD CLOUDY N/A N/A N/A S3 30.55R BRIDGEPORT CLOUDY 25 15 66 E3 30.54S DANBURY LGT SNOW 23 18 81 SE6 30.50F WCI 16 GROTON CLOUDY 27 17 66 CALM 30.54R NEW HAVEN CLOUDY 24 13 62 CALM 30.54R CHESTER CLOUDY 25 14 63 CALM 30.52R MERIDEN CLOUDY 22 11 62 CALM 30.54R WILLIMANTIC CLOUDY 24 15 68 CALM 30.54R OXFORD LGT SNOW 21 16 81 CALM 30.49R $$ MEZ002-015-021-024-NHZ003-005-008-011-012-014-VTZ005-008-161500- NORTHERN NEW ENGLAND CITY SKY/WX TMP DP RH WIND PRES REMARKS PORTLAND ME FAIR 17 10 74 E8 30.54R WCI 7 BANGOR ME PTSUNNY 13 7 77 N6 30.51S WCI 4 CONCORD NH CLOUDY 19 12 74 CALM 30.51R MANCHESTER NH PTSUNNY 21 11 65 CALM 30.51R NASHUA NH PTSUNNY 19 10 68 CALM 30.53R PORTSMOUTH NH MOSUNNY 19 11 69 NW6 30.52R WCI 11 JAFFREY NH CLOUDY 19 14 81 CALM 30.44R KEENE NH CLOUDY 19 13 77 CALM 30.51R BURLINGTON VT PTSUNNY 19 14 81 S5 30.43S WCI 12 MT. WASHINGTON FOG 5 5 100 W38 N/A VSB 1/8 WCI -21 $$ NYZ052-076-161500- EASTERN NEW YORK CITY SKY/WX TMP DP RH WIND PRES REMARKS ALBANY LGT SNOW 21 16 81 S5 30.47S WCI 15 NEW YORK CITY CLOUDY 27 22 81 E7 30.51S WCI 19 $$ ANZALL-161500- MARINE OBSERVATIONS STATION/POSITION TIME TEMP WIND PRES VSBY WAVE AIR SEA DIR/SP/G HT/PER (UTC) (F) (DEG/KT/KT) (MB) (MI) (FT/S) BOSTON BUOY 1350 28 41 20/ 4/ 4 1033.0F 9/10 BUZZARDS BAY 1300 26 40/ 10/ 11 1034.1R NANTUCKET SOUND 1350 31 34 350/ 12/ 14 1033.7R 2/ 3 MASS BAY-STELLWA 1304 26 40 1032.8F 9/11 ISLE OF SHOALS 1300 21 10/ 4/ 5 1033.5F S OF BLOCK IS 1343 41 N/A 5/11 $$ ......................KEY......................... SKY/WX - SKY CONDITION/PRESENT WEATHER TMP - TEMPERATURE IN FAHRENHEIT DWPT - DEWPOINT IN FAHRENHEIT RH - RELATIVE HUMIDITY IN PERCENT WIND - DIRECTION AND SPEED IN MPH PRES - MEAN SEA LEVEL PRESSURE IN INCHES OF HG WCI - WIND CHILL INDEX VSB - VISIBILITY IN MILES HX - HEAT INDEX TC - TEMPERATURE IN CELSIUS VRB - VARIABLE WIND DIRECTION N/A - NOT AVAILABLE

USA.gov is the U.S. government's official web portal to all federal, state and local government web resources and services.